Location: Bakov nad Jizerou
(50.4784°N, 14.9394°E)
Time: 17:21:40
(UTC+00:00)

Cosmos 2322 - Pass Details

Date: 25 October 2021
Orbit: 841 x 854 km, 71.0° (Epoch: 04 December)

Event Time Altitude Azimuth Distance (km) Brightness Sun altitude
Rises 20:16:37 0° 248° (WSW) 3,418 7.2 -41.5°
Reaches altitude 10° 20:19:27 10° 261° (W) 2,486 6.5 -41.8°
Enters shadow 20:20:02 12° 265° (W) 2,313 6.3 -41.9°
